NIGHTM2 EGXC-LCRA

Flight info

Callsign NIGHTM2
Flight time N/A
Altitude 30000
Route BKY DCT AFI DCT HUL DCT MAH DCT ZAG DCT DER DCT TZU DCT KPL DCT GKA DCT EDR DCT DEN DCT PHA
Aircraft EUFI/M-SDGHITUY/LB1

Departure

Time 2026-04-18 18:54
Airport RAF Coningsby (EGXC)

Arrival

Time N/A
Airport RAF Akrotiri (LCRA)
Time Latitude Longitude Altitude Speed Heading
2026-04-18 18:33 53.09104 -0.15929 27 ft 0 kts 291°
2026-04-18 18:44 53.09107 -0.15942 27 ft 0 kts 293°
2026-04-18 18:49 53.09123 -0.15958 28 ft 10 kts 358°
2026-04-18 18:49 53.09193 -0.16017 25 ft 15 kts 297°
2026-04-18 18:50 53.09256 -0.16000 25 ft 12 kts 66°
2026-04-18 18:50 53.09275 -0.15894 25 ft 14 kts 77°
2026-04-18 18:50 53.09308 -0.15734 25 ft 16 kts 71°
2026-04-18 18:50 53.09344 -0.15547 25 ft 18 kts 77°
2026-04-18 18:51 53.09378 -0.15379 25 ft 20 kts 73°
2026-04-18 18:51 53.09421 -0.15162 25 ft 22 kts 67°
2026-04-18 18:51 53.09470 -0.14906 27 ft 24 kts 71°
2026-04-18 18:51 53.09564 -0.14672 25 ft 25 kts 23°
2026-04-18 18:52 53.09672 -0.14739 26 ft 17 kts 292°
2026-04-18 18:52 53.09673 -0.14799 26 ft 0 kts 253°
2026-04-18 18:53 53.09490 -0.15727 38 ft 204 kts 255°
2026-04-18 18:53 53.09156 -0.17508 313 ft 339 kts 255°
2026-04-18 18:54 53.08247 -0.22461 1766 ft 505 kts 253°
2026-04-18 18:54 53.07227 -0.27115 10846 ft 380 kts 249°
2026-04-18 18:54 53.06924 -0.28336 14799 ft 319 kts 248°
2026-04-18 18:54 53.06641 -0.29442 18879 ft 362 kts 248°
2026-04-18 18:55 53.05872 -0.32477 26666 ft 471 kts 248°
2026-04-18 18:55 53.05123 -0.35475 31360 ft 563 kts 248°
2026-04-18 18:55 53.03495 -0.42064 34059 ft 690 kts 248°
2026-04-18 18:55 53.01843 -0.48631 33390 ft 752 kts 247°
2026-04-18 18:56 52.99924 -0.55960 32595 ft 619 kts 246°
2026-04-18 18:56 52.98190 -0.62238 31829 ft 637 kts 245°
2026-04-18 18:56 52.96266 -0.68876 31082 ft 634 kts 244°
2026-04-18 18:56 52.94266 -0.75387 30346 ft 631 kts 243°
2026-04-18 18:57 52.91870 -0.81455 29487 ft 631 kts 230°
2026-04-18 18:57 52.88659 -0.86156 28653 ft 624 kts 215°
2026-04-18 18:57 52.84764 -0.89309 27848 ft 626 kts 200°
2026-04-18 18:57 52.84092 -0.89650 27728 ft 626 kts 198°
2026-04-18 18:58 52.79784 -0.90553 27709 ft 628 kts 181°
2026-04-18 18:58 52.75834 -0.89714 27815 ft 640 kts 168°
2026-04-18 18:58 52.74631 -0.89143 27844 ft 642 kts 164°
2026-04-18 18:58 52.71381 -0.86704 28217 ft 644 kts 152°
2026-04-18 18:59 52.67798 -0.82126 29058 ft 662 kts 137°
2026-04-18 18:59 52.66750 -0.80260 29346 ft 667 kts 133°
2026-04-18 18:59 52.64698 -0.75531 29790 ft 677 kts 122°
2026-04-18 19:00 52.63561 -0.71860 29951 ft 682 kts 115°
2026-04-18 19:00 52.62122 -0.64420 30111 ft 687 kts 105°
2026-04-18 19:00 52.61592 -0.60582 30149 ft 688 kts 103°
2026-04-18 19:01 52.59943 -0.46327 30195 ft 689 kts 101°
2026-04-18 19:01 52.58645 -0.38822 30189 ft 685 kts 114°
2026-04-18 19:01 52.56352 -0.32005 30197 ft 681 kts 126°
2026-04-18 19:02 52.51338 -0.20813 30195 ft 681 kts 130°
2026-04-18 19:02 52.45482 -0.08557 30220 ft 681 kts 130°
2026-04-18 19:03 52.39608 0.03600 30195 ft 678 kts 131°
2026-04-18 19:03 52.33796 0.15703 30212 ft 678 kts 131°
2026-04-18 19:04 52.25049 0.33924 30195 ft 679 kts 131°
2026-04-18 19:04 52.19226 0.46089 30212 ft 679 kts 131°
2026-04-18 19:05 52.10570 0.64318 30213 ft 677 kts 131°
2026-04-18 19:06 52.04870 0.76401 30221 ft 678 kts 131°
2026-04-18 19:06 51.98347 0.90025 30232 ft 846 kts 131°
2026-04-18 19:06 51.94695 0.97557 30235 ft 852 kts 131°
2026-04-18 19:07 51.87416 1.12696 30222 ft 852 kts 131°
2026-04-18 19:07 51.80126 1.27932 30182 ft 854 kts 131°
2026-04-18 19:08 51.72865 1.43138 30213 ft 856 kts 131°
2026-04-18 19:08 51.65669 1.58284 30203 ft 855 kts 131°
2026-04-18 19:09 51.58439 1.73560 30209 ft 856 kts 131°
2026-04-18 19:09 51.51236 1.88756 30204 ft 858 kts 131°
2026-04-18 19:10 51.43983 2.04025 30210 ft 857 kts 131°
2026-04-18 19:10 51.36720 2.19269 30222 ft 858 kts 131°
2026-04-18 19:11 51.29506 2.34349 30201 ft 861 kts 131°
2026-04-18 19:11 51.22220 2.49429 30224 ft 861 kts 131°
2026-04-18 19:12 51.14824 2.64606 30235 ft 862 kts 131°
2026-04-18 19:12 51.07454 2.79665 30240 ft 861 kts 131°
2026-04-18 19:13 51.00072 2.94650 30228 ft 860 kts 131°
2026-04-18 19:13 50.92656 3.09575 30229 ft 861 kts 132°
2026-04-18 19:14 50.85229 3.24458 30223 ft 860 kts 132°
2026-04-18 19:14 50.77827 3.39258 30199 ft 865 kts 132°
2026-04-18 19:15 50.70363 3.54173 30213 ft 866 kts 132°
2026-04-18 19:15 50.62894 3.69058 30223 ft 865 kts 132°
2026-04-18 19:16 50.55431 3.83928 30194 ft 871 kts 132°